Regional Weather Roundup
Issued by NWS Cleveland, OH

Home | Current Version | Previous Version | Graphics & Text | Print | Product List | Glossary On
Versions: 1 2 3 4 5 6 7 8 9 10 11 12 13 14 15 16 17 18 19 20 21 22 23 24 25 26 27 28 29 30 31 32 33 34 35 36 37 38 39 40 41 42 43 44 45 46 47 48 49 50
000
ASUS41 KCLE 030700
RWRCLE
OHIO REGIONAL WEATHER ROUNDUP
NATIONAL WEATHER SERVICE WILMINGTON, OH
300 AM EDT WED SEP 03 2014

NOTE: "FAIR" INDICATES FEW OR NO CLOUDS BELOW 12,000 FEET WITH NO
SIGNIFICANT WEATHER AND/OR OBSTRUCTIONS TO VISIBILITY.

OHZ001>008-015>018-024>027-034-035-043-044-030800-
   NORTHWEST OHIO

CITY           SKY/WX    TMP DP  RH WIND       PRES   REMARKS
DEFIANCE       FOG       62  60  93 CALM      29.99S VSB 1/4
FINDLAY        CLEAR     66  64  93 SW7       29.98F
TOLEDO EXPRESS MOCLDY    63  63 100 W3        29.98S FOG
TOLEDO METCALF CLEAR     66  63  90 W5        29.99R
LIMA           PTCLDY    66  64  93 S5        30.00S FOG
$$

OHZ009>014-019>023-028>033-038-089-030800-
   NORTHEAST OHIO

CITY           SKY/WX    TMP DP  RH WIND       PRES   REMARKS
CLE-HOPKINS    PTCLDY    63  61  93 SW3       30.00F
CLE-LAKEFRONT  CLEAR     68  64  87 SW6       29.97S
CUY CO. ARPT   NOT AVBL
LORAIN-ELYRIA  FOG       66  63  90 CALM      30.00S VSB 3/4
ASHTABULA      FOG       61  60  97 CALM      30.00R VSB 1/4
AKRON-CANTON   PTCLDY    65  62  90 CALM      30.01S FOG
WOOSTER        NOT AVBL
MANSFIELD      CLEAR     63  63 100 S3        30.01S
YOUNGSTOWN     PTCLDY    60  58  92 CALM      30.00S
$$

OHZ042-051>053-060>062-070>072-077>081-030800-
  SOUTHWEST OHIO

CITY           SKY/WX    TMP DP  RH WIND       PRES   REMARKS
CINC-COVINGTON FOG       67  65  93 CALM      30.02S VSB 1/4
CINC-LUNKEN    FOG       69  69 100 CALM      30.02S VSB 1/4
HAMILTON       FOG       65  65 100 CALM      30.02S VSB 1/4
DAYTON         NOT AVBL
WRIGHT-PAT AFB NOT AVBL
DAYTON GENERAL CLEAR     66  65  96 CALM      30.01F FOG
WILMINGTON     FOG       64  63  96 W3        30.02S VSB 1/4
$$

OHZ036-037-039>041-045>050-054>059-063>069-073>076-082>088-030800-
  CENTRAL AND SOUTHEAST OHIO

CITY           SKY/WX    TMP DP  RH WIND       PRES   REMARKS
COLUMBUS       PTCLDY    68  64  87 CALM      30.00S
OSU AIRPORT    FOG       65  64  97 CALM      30.00F VSB 1/2
BOLTON FIELD   NOT AVBL
RICKENBACK AFB NOT AVBL
NEWARK         FOG       62  60  93 CALM      30.00F VSB 1/2
MARION         CLEAR     63  61  93 S5        30.00F FOG
LANCASTER      FOG       63  61  93 CALM      30.00F VSB 1
ZANESVILLE     PTCLDY    64  62  93 CALM      30.01S
NEW PHILLY     FOG       64  64 100 CALM      30.01S VSB 1/4
$$


USA.gov is the U.S. government's official web portal to all federal, state and local government web resources and services.